Chattanooga, TN

1:04 PM EDT on May 26, 2018 (GMT -0400)
Lovell

Weather History for KCHA - March, 2012

Change the Weather History Date:

Saturday, March 31, 2012

  Actual Average Record
Temperature  
Mean Temperature 69 °F 56 °F  
Max Temperature 80 °F 69 °F 87 °F (1963)
Min Temperature 58 °F 44 °F 25 °F (1923)
Degree Days  
Heating Degree Days 0 9  
Month to date heating degree days 127 403  
Since 1 July heating degree days 2312 3026  
Cooling Degree Days 4 1  
Month to date cooling degree days 71 7  
Year to date cooling degree days 73 7  
Growing Degree Days 19 (Base 50)    
Moisture  
Dew Point 60 °F    
Average Humidity 76    
Maximum Humidity 100    
Minimum Humidity 52    
Precipitation  
Precipitation 0.40 in 0.15 in 1.87 in (1927)
Month to date precipitation 5.40 4.98  
Year to date precipitation 14.75 14.73  
Snow  
Snow 0.00 in 0.00 in - ()
Month to date snowfall 0.0 1.2  
Since 1 July snowfall T 3.8  
Snow Depth 0.00 in    
Sea Level Pressure  
Sea Level Pressure 29.86 in    
Wind  
Wind Speed 2 mph (SW)    
Max Wind Speed 22 mph    
Max Gust Speed 25 mph    
Visibility 7 miles    
Events Fog , Rain , Thunderstorm    
T = Trace of Precipitation, MM = Missing Value Source: NWS Daily Summary

Daily Weather History Graph

Daily Weather History Graph

Search for Another Location

Airport or City:

Astronomy

Mar. 31, 2012 Rise Set
Actual Time 7:28 AM EDT 8:01 PM EDT
Civil Twilight 7:02 AM EDT 8:27 PM EDT
Nautical Twilight 6:32 AM EDT 8:57 PM EDT
Astronomical Twilight 6:02 AM EDT 9:27 PM EDT
Moon 1:43 PM EDT (3/31) 3:09 AM EDT (3/31)
Length of Visible Light 13h 24m
Length of Day
12h 33m
First Quarter, 59% of the Moon is Illuminated
Mar 31
First Quarter
Apr 6
Full
Apr 13
Last Quarter
Apr 21
New
Apr 29
First Quarter

Hourly Weather History & Observations

Time (EDT) Temp. Dew Point Humidity Pressure Visibility Wind Dir Wind Speed Gust Speed Precip Events Conditions
12:24 AM 62.6 °F 62.6 °F 100% 29.88 in 8.0 mi Calm Calm - N/A   Overcast
12:47 AM 62.6 °F 62.6 °F 100% 29.87 in 7.0 mi Calm Calm - N/A   Overcast
12:53 AM 63.0 °F 62.1 °F 97% 29.86 in 7.0 mi Calm Calm - N/A   Overcast
1:53 AM 63.0 °F 62.1 °F 97% 29.86 in 7.0 mi Calm Calm - N/A   Overcast
2:53 AM 63.0 °F 62.1 °F 97% 29.86 in 6.0 mi Calm Calm - N/A   Overcast
3:53 AM 63.0 °F 62.1 °F 97% 29.85 in 5.0 mi Calm Calm - N/A   Overcast
4:46 AM 62.6 °F 60.8 °F 94% 29.86 in 8.0 mi Calm Calm - N/A   Overcast
4:53 AM 62.1 °F 60.1 °F 93% 29.84 in 9.0 mi Calm Calm - N/A   Overcast
5:53 AM 61.0 °F 60.1 °F 97% 29.85 in 5.0 mi SSW 3.5 mph - N/A   Scattered Clouds
6:42 AM 60.8 °F 59.0 °F 94% 29.87 in 8.0 mi Calm Calm - N/A   Overcast
6:53 AM 60.1 °F 59.0 °F 96% 29.86 in 6.0 mi Calm Calm - N/A   Mostly Cloudy
7:53 AM 61.0 °F 59.0 °F 93% 29.88 in 9.0 mi Calm Calm - N/A   Mostly Cloudy
8:32 AM 62.6 °F 60.8 °F 94% 29.90 in 9.0 mi SW 4.6 mph - N/A Fog Shallow Fog
8:53 AM 64.0 °F 61.0 °F 90% 29.88 in 9.0 mi WSW 4.6 mph - N/A Fog Shallow Fog
9:53 AM 66.9 °F 63.0 °F 87% 29.88 in 10.0 mi Variable 3.5 mph - N/A   Mostly Cloudy
10:53 AM 69.1 °F 61.0 °F 75% 29.90 in 10.0 mi Calm Calm - N/A   Mostly Cloudy
11:00 AM 69.8 °F 62.6 °F 78% 29.91 in 10.0 mi WSW 4.6 mph - N/A   Overcast
11:53 AM 72.0 °F 62.1 °F 71% 29.90 in 10.0 mi Calm Calm - N/A   Overcast
12:00 PM 71.6 °F 60.8 °F 69% 29.91 in 10.0 mi Calm Calm - N/A   Overcast
12:53 PM 73.9 °F 61.0 °F 64% 29.88 in 10.0 mi Calm Calm - 0.01 in   Overcast
1:53 PM 75.9 °F 60.1 °F 58% 29.86 in 10.0 mi Variable 3.5 mph - N/A   Mostly Cloudy
2:53 PM 78.1 °F 61.0 °F 56% 29.83 in 10.0 mi Variable 3.5 mph - N/A   Mostly Cloudy
3:53 PM 79.0 °F 59.0 °F 50% 29.79 in 10.0 mi South 5.8 mph - N/A   Mostly Cloudy
4:13 PM 77.0 °F 57.2 °F 50% 29.82 in 10.0 mi WNW 3.5 mph - N/A Thunderstorm Thunderstorm
4:50 PM 66.2 °F 60.8 °F 83% 29.84 in 1.0 mi WSW 15.0 mph 24.2 mph 0.05 in Rain , Thunderstorm Thunderstorms and Rain
4:53 PM 66.9 °F 55.0 °F 66% 29.81 in 7.0 mi East 8.1 mph 24.2 mph 0.08 in Rain , Thunderstorm Light Thunderstorms and Rain
5:00 PM 64.4 °F 55.4 °F 73% 29.82 in 10.0 mi East 8.1 mph - 0.30 in Rain , Thunderstorm Light Thunderstorms and Rain
5:42 PM 68.0 °F 62.6 °F 83% 29.83 in 10.0 mi ENE 6.9 mph - 0.31 in   Mostly Cloudy
5:53 PM 68.0 °F 63.0 °F 84% 29.82 in 10.0 mi NNW 3.5 mph - 0.31 in   Mostly Cloudy
6:53 PM 66.0 °F 64.0 °F 93% 29.82 in 10.0 mi Calm Calm - N/A   Mostly Cloudy
7:53 PM 64.9 °F 63.0 °F 93% 29.83 in 10.0 mi Calm Calm - N/A   Mostly Cloudy
8:53 PM 64.0 °F 62.1 °F 93% 29.85 in 6.0 mi Calm Calm - N/A   Mostly Cloudy
9:53 PM 63.0 °F 61.0 °F 93% 29.87 in 7.0 mi Calm Calm - N/A Fog Shallow Fog
10:53 PM 61.0 °F 59.0 °F 93% 29.88 in 5.0 mi Calm Calm - N/A Fog Patches of Fog
11:15 PM 60.8 °F 59.0 °F 94% 29.90 in 1.8 mi Calm Calm - N/A Fog Patches of Fog
11:28 PM 60.8 °F 59.0 °F 94% 29.89 in 0.5 mi Calm Calm - N/A Fog Fog
11:39 PM 59.0 °F 57.2 °F 94% 29.90 in 1.2 mi Calm Calm - N/A   Partly Cloudy
11:42 PM 60.8 °F 57.2 °F 88% 29.90 in 2.0 mi Calm Calm - N/A   Partly Cloudy
11:53 PM 59.0 °F 57.9 °F 96% 29.89 in 0.8 mi Calm Calm - N/A   Mist